Погода в Среднем Майдане

Украина / Ивано-Франковская область     48°38′14″N   24°45′27″E
темп.,
°C
ветер,
м/с
пор.,
м/с
влажн.,
%
обл.,
%
осадки,
мм/ч
давл.,
гПа
погр.,
м
5 марта, пт
пт523:00+5зсз238694 0.8 1014108
02:00+5ююз239297 4.4 1013123
05:00+5зюз1189100 0.7 101230
08:00+3с3598100 4.3 1012318
11:00+2с4797100 5.2 1013353
14:00+1ссз3596100 6.9 1013325
17:000с5899100 4.4 1015415
20:00−1с5997100 8.4 1019561
6 марта, сб
сб623:00−2ссз4796100 2.0 1022579
02:00−4сз3691100 2.3 1025161
05:00−7з358950 0.0 102688
08:00−6зюз358225 0.0 1029139
11:00−1сз577867 0.0 1029948
14:00+1сз586846 0.3 10291510
17:000сз497172 0.1 1029823
20:00−4з358236 0.1 1031100
7 марта, вс
вс723:00−4зюз47770 0.0 1031131
02:00−5юз46740 0.0 1030120
05:00−5юз46740 0.0 1028138
08:00−4юз36780 0.0 1027169
11:00+2з386230 0.0 1024907
14:00+4зюз385651 0.0 10221159
17:00+3юз247116 0.0 1020245
20:00−2юз33778 0.0 102056
8 марта, пн
пн823:00−3юз24790 0.0 101984
02:00−3зюз23780 0.0 101843
05:00−3зюз34790 0.0 101783
08:00−2зюз247533 0.0 1017134
11:00+2зсз2362100 0.0 1015552
14:00+4зсз3563100 0.1 10151127
17:00+2сз4879100 0.3 1015735
20:00−2ссз61193100 1.8 1018801
9 марта, вт
вт923:00−3зсз4983100 0.3 1020334
02:00−4зсз498554 0.3 1021358
05:00−4сз499028 0.0 1022584
08:00−4ссз468462 0.2 1023658
11:00−2ссз346697 0.1 10241080
14:00−1с335198 0.2 10241297
17:00−2ссв225375 0.0 10241180
20:00−4в226953 0.0 102653